Zurück zum Katalog

FENGYUN 1C DEB

AktivSSO
NORAD 32223·DEBRIS·🇨🇳 China

Gestartet May 10, 1999 von Taiyuan Satellite Launch Center

Loading…

Nächste Überflüge (nächste 24 Stunden)

TLE

AktuellSource: Space-Track

Epoche: Sep 14, 2026, 11:26 UTC

1 32223U 99025CVV 26257.47706200  .00001855  00000-0  84426-3 0  9991
2 32223  98.8276 341.7666 0045905 242.2793 180.6987 14.22408565681426

Verfolge FENGYUN 1C DEB in Echtzeit mit AllMySat

Download on the App Store